FW5763 Weather Reports


Display with metric or nautical units.
time (UTC)temp
F
wind
direction
speed
MPH
gust
MPH
rain 1hr
in
rain 24hr
in
rain mn
in
humidity
%
barometer
mb
20260509072617 50 0.0 0.0 0.00 0.00 0.00 91 1017.3
20260509071616 51 0.0 0.0 0.00 0.00 0.00 90 1017.4
20260509070638 51 0.0 0.0 0.00 0.00 0.00 90 1017.4
20260509065657 51 0.0 0.0 0.00 0.00 0.00 90 1017.5
20260509064618 52 0.0 0.0 0.00 0.00 0.00 90 1017.5
20260509063616 52 277 0.0 1.0 0.00 0.00 0.00 90 1017.5
20260509062617 52 277 0.0 1.0 0.00 0.00 0.00 90 1017.5
20260509061617 52 277 0.0 1.0 0.00 0.00 0.00 89 1017.6
20260509060615 53 0.0 0.0 0.00 0.00 0.00 89 1017.6
20260509055615 53 0.0 0.0 0.00 0.00 0.00 89 1017.6
20260509054615 53 0.0 0.0 0.00 0.00 0.00 89 1017.8
20260509053615 54 225 0.0 1.0 0.00 0.00 0.00 88 1017.7
20260509052615 54 0.0 1.0 0.00 0.00 0.00 88 1017.8
20260509051615 54 225 0.0 1.0 0.00 0.00 0.00 88 1017.6
20260509050635 55 225 1.0 1.0 0.00 0.00 0.00 88 1017.7
20260509045615 55 0.0 0.0 0.00 0.00 0.00 88 1017.5
20260509044615 55 0.0 0.0 0.00 0.00 0.00 87 1017.5
20260509043615 55 0.0 0.0 0.00 0.00 0.00 87 1017.5
20260509042635 56 155 0.0 1.0 0.00 0.00 0.00 86 1017.4
20260509041615 56 155 0.0 1.0 0.00 0.00 0.00 86 1017.2
20260509040615 57 134 1.0 2.0 0.00 0.00 0.00 85 1017.1
20260509035615 57 125 0.0 1.0 0.00 0.00 0.00 84 1017.0
20260509034615 58 136 1.0 4.0 0.00 0.00 0.00 84 1016.9
20260509033615 58 118 1.0 4.0 0.00 0.00 0.00 83 1016.9
20260509032635 59 138 1.0 3.0 0.00 0.00 0.00 81 1016.8
20260509031635 60 173 1.0 1.0 0.00 0.00 0.00 80 1016.7
20260509030615 60 181 0.0 1.0 0.00 0.00 0.00 79 1016.6
20260509025615 61 142 1.0 3.0 0.00 0.00 0.00 77 1016.6
20260509024615 61 64 0.0 1.0 0.00 0.00 0.00 76 1016.5
20260509023615 62 159 1.0 2.0 0.00 0.00 0.00 75 1016.5
20260509022615 62 117 1.0 2.0 0.00 0.00 0.00 75 1016.4
20260509021615 62 101 4.0 6.0 0.00 0.00 0.00 73 1016.4
20260509020715 63 90 2.0 5.0 0.00 0.00 0.00 72 1016.3
20260509015615 63 84 3.0 5.0 0.00 0.00 0.00 71 1016.4
20260509014615 64 168 4.0 6.0 0.00 0.00 0.00 70 1016.4
20260509013614 64 96 3.0 4.0 0.00 0.00 0.00 70 1016.3
20260509012615 64 115 3.0 7.0 0.00 0.00 0.00 69 1016.3
20260509011614 64 158 5.0 7.0 0.00 0.00 0.00 68 1016.3
20260509010614 65 172 3.0 6.0 0.00 0.00 0.00 67 1016.4
20260509005615 65 145 4.0 7.0 0.00 0.00 0.00 67 1016.3
20260509004614 65 165 3.0 9.0 0.00 0.00 0.00 66 1016.4
20260509003615 66 98 3.0 6.0 0.00 0.00 0.00 65 1016.5
20260509002615 66 107 3.0 4.0 0.00 0.00 0.00 64 1016.5
20260509001614 68 166 3.0 6.0 0.00 0.00 0.00 64 1016.6
20260509000615 67 90 3.0 7.0 0.00 0.00 0.00 64 1016.7
20260508235614 67 106 6.0 10.0 0.00 0.00 0.00 63 1016.8
20260508234616 67 130 4.0 8.0 0.00 0.00 0.00 62 1016.8
20260508233637 68 153 4.0 11.0 0.00 0.00 0.00 64 1016.7
20260508232617 67 160 2.0 11.0 0.00 0.00 0.00 64 1016.8
20260508231657 67 174 2.0 4.0 0.00 0.00 0.00 66 1016.9
20260508230615 68 117 3.0 7.0 0.00 0.00 0.00 65 1016.9
20260508225617 67 148 4.0 9.0 0.00 0.00 0.00 65 1017.1
20260508224617 68 93 4.0 7.0 0.00 0.00 0.00 64 1017.2
20260508223636 68 146 5.0 8.0 0.00 0.00 0.00 65 1017.2
20260508222617 67 130 2.0 7.0 0.00 0.00 0.00 65 1017.3
20260508221617 68 105 6.0 9.0 0.00 0.00 0.00 65 1017.5
20260508220617 67 163 3.0 6.0 0.00 0.00 0.00 66 1017.5
20260508215616 66 193 2.0 6.0 0.00 0.00 0.00 66 1017.7
20260508214617 67 121 3.0 7.0 0.00 0.00 0.00 66 1017.9
20260508213657 66 152 3.0 5.0 0.00 0.00 0.00 67 1018.0
20260508212617 66 139 3.0 11.0 0.00 0.00 0.00 66 1018.3
20260508211616 66 109 3.0 4.0 0.00 0.00 0.00 67 1018.2
20260508210617 65 161 5.0 8.0 0.00 0.00 0.00 68 1018.4
20260508205617 65 109 5.0 9.0 0.00 0.00 0.00 68 1018.4
20260508204656 64 91 2.0 4.0 0.00 0.00 0.00 69 1018.4
20260508203637 64 156 3.0 7.0 0.00 0.00 0.00 68 1018.5
20260508202617 64 90 4.0 7.0 0.00 0.00 0.00 69 1018.4
20260508201617 63 194 3.0 4.0 0.00 0.00 0.00 70 1018.6
20260508200617 64 156 5.0 8.0 0.00 0.00 0.00 69 1018.7
20260508195617 63 183 2.0 6.0 0.00 0.00 0.00 69 1018.8
20260508194616 63 138 6.0 8.0 0.00 0.00 0.00 71 1018.9
20260508193617 63 179 2.0 6.0 0.00 0.00 0.00 71 1018.9
20260508192617 61 129 2.0 5.0 0.00 0.00 0.00 72 1019.2
20260508191616 61 118 4.0 6.0 0.00 0.00 0.00 73 1019.4
20260508190617 60 264 1.0 2.0 0.00 0.00 0.00 74 1019.4
20260508185617 60 157 4.0 8.0 0.00 0.00 0.00 73 1019.5
20260508184617 60 119 2.0 5.0 0.00 0.00 0.00 75 1019.6
20260508183617 60 143 3.0 7.0 0.00 0.00 0.00 76 1019.6
20260508182616 60 181 5.0 9.0 0.00 0.00 0.00 74 1019.7
20260508181616 59 198 3.0 9.0 0.00 0.00 0.00 76 1019.7
20260508180617 60 216 6.0 8.0 0.00 0.00 0.00 74 1019.7
20260508175657 60 157 4.0 7.0 0.00 0.00 0.00 75 1019.8
20260508174637 60 147 3.0 5.0 0.00 0.00 0.00 77 1019.8
20260508173616 60 214 5.0 9.0 0.00 0.00 0.00 76 1019.9
20260508172616 59 138 3.0 4.0 0.00 0.00 0.00 76 1019.7
20260508171617 59 137 4.0 6.0 0.00 0.00 0.00 78 1019.7
20260508170617 58 98 2.0 4.0 0.00 0.00 0.00 80 1019.7
20260508165616 57 238 6.0 7.0 0.00 0.00 0.00 81 1019.7
20260508164617 56 284 1.0 3.0 0.00 0.00 0.00 82 1019.6
20260508163616 55 117 1.0 3.0 0.00 0.00 0.00 83 1019.7
20260508162635 55 120 2.0 3.0 0.00 0.00 0.00 83 1019.7
20260508161617 55 140 1.0 2.0 0.00 0.00 0.00 84 1019.8
20260508160617 55 183 2.0 3.0 0.00 0.00 0.00 84 1019.9
20260508155616 54 120 1.0 2.0 0.00 0.00 0.00 85 1019.8
20260508154615 54 76 1.0 2.0 0.00 0.00 0.00 86 1019.7
20260508153636 53 313 1.0 2.0 0.00 0.00 0.00 87 1019.7
20260508152717 53 13 1.0 3.0 0.00 0.00 0.00 87 1019.7
20260508151636 52 311 2.0 3.0 0.00 0.00 0.00 87 1019.8
20260508150616 52 335 1.0 2.0 0.00 0.00 0.00 88 1019.8
20260508145616 51 292 2.0 3.0 0.00 0.00 0.00 88 1019.9
20260508144617 51 288 2.0 4.0 0.00 0.00 0.00 88 1019.8
20260508143616 51 305 2.0 4.0 0.00 0.00 0.00 88 1019.7
20260508142617 51 317 3.0 5.0 0.00 0.00 0.00 89 1019.5
20260508141616 51 314 4.0 5.0 0.00 0.00 0.00 89 1019.6
20260508140616 51 318 1.0 4.0 0.00 0.00 0.00 90 1019.5
20260508135637 50 279 3.0 4.0 0.00 0.00 0.00 90 1019.6
20260508134616 50 294 2.0 2.0 0.00 0.00 0.00 90 1019.4
20260508134116 50 311 2.0 3.0 0.00 0.00 0.00 90 1019.3
20260508133116 50 291 2.0 3.0 0.00 0.00 0.00 90 1019.2
20260508132117 50 286 3.0 5.0 0.00 0.00 0.00 89 1019.2
20260508131116 50 292 1.0 2.0 0.00 0.00 0.00 89 1019.1
20260508130117 51 304 2.0 2.0 0.00 0.00 0.00 89 1019.0
20260508125136 51 293 2.0 3.0 0.00 0.00 0.00 89 1019.2
20260508124116 51 289 2.0 3.0 0.00 0.00 0.00 89 1019.1
20260508123137 52 322 4.0 5.0 0.00 0.00 0.00 90 1019.2
20260508122116 52 10 3.0 4.0 0.00 0.00 0.00 90 1019.2
20260508121116 52 343 1.0 4.0 0.00 0.00 0.00 90 1019.1
20260508120136 52 320 1.0 3.0 0.00 0.00 0.00 91 1019.0
20260508115116 52 322 1.0 3.0 0.00 0.00 0.00 91 1018.8
20260508114136 52 6 4.0 6.0 0.00 0.00 0.00 91 1018.7
20260508113117 52 3 0.0 2.0 0.00 0.00 0.00 91 1018.9
20260508112116 52 254 1.0 2.0 0.00 0.00 0.00 91 1018.8
20260508111116 52 302 3.0 4.0 0.00 0.00 0.00 91 1018.8
20260508110116 52 288 2.0 3.0 0.00 0.00 0.00 92 1018.8
20260508105116 52 298 2.0 3.0 0.00 0.00 0.00 91 1018.8
20260508104116 52 249 2.0 3.0 0.00 0.00 0.00 91 1018.8
20260508103116 52 279 2.0 4.0 0.00 0.00 0.00 91 1018.8
20260508102116 52 285 2.0 3.0 0.00 0.00 0.00 91 1018.8
20260508101116 52 258 0.0 2.0 0.00 0.00 0.00 91 1018.7
20260508100116 53 251 2.0 3.0 0.00 0.00 0.00 92 1018.6
20260508095116 53 329 1.0 2.0 0.00 0.00 0.00 92 1018.7
20260508094116 53 0.0 2.0 0.00 0.00 0.00 91 1018.5
20260508093116 53 0.0 1.0 0.00 0.00 0.00 91 1018.6
20260508092116 53 54 1.0 3.0 0.00 0.00 0.00 91 1018.6
20260508091116 53 84 2.0 3.0 0.00 0.00 0.00 91 1018.6
20260508090116 53 90 1.0 2.0 0.00 0.00 0.00 91 1018.5
20260508085116 52 98 0.0 1.0 0.00 0.00 0.00 91 1018.6
20260508084116 52 0.0 1.0 0.00 0.00 0.00 91 1018.6
20260508083116 52 283 1.0 2.0 0.00 0.00 0.00 91 1018.6
20260508082136 52 0.0 0.0 0.00 0.00 0.00 90 1018.6
20260508081116 52 0.0 0.0 0.00 0.00 0.00 91 1018.7
20260508080116 53 0.0 0.0 0.00 0.00 0.00 90 1018.7
20260508075116 53 308 1.0 2.0 0.00 0.00 0.00 90 1018.7
20260508074116 53 0.0 1.0 0.00 0.00 0.00 90 1018.7
20260508073116 53 281 0.0 1.0 0.00 0.00 0.00 90 1018.8